FLOCK 2E-9 (41571 NORAD) Tracking and Keplerian Element Data

This shows tracking and keplerian element data for the satellite.

Feedback or suggestion? Click here.




ElementValue
Catalog41571
NameFLOCK 2E-9
Epoch Orbit8970
Epoch Day358.79358663
Epoch Year2017
RAAN107.3098
Inclination51.6107
Eccentricity0.000992
Argument of Perigee356.3054
Mean Anonmoly4.229
Mean Motion16.34648771
Decay Rate0.0757051
L11 41571U 98067JV 17358.79358663 .07570510 12393-4 99252-3 0 9996
L22 41571 51.6107 107.3098 0009920 356.3054 4.2290 16.34648771 89702



Live tracking and technical data element details for FLOCK 2E-9 (NORAD 41571). FLOCK 2E-9 can be tracked NOW for your location showing map with azimuth and elevation plus other details from your city location.







IsCatalogInMostPopularTable: catalog: 41571, numindb: 669
Update: records affected: 1



GetName: 41571 FLOCK 2E-9

Hit Count: updated at: Sat, 17 May 2025 08:53:01 GMT